Simultaneous Nadir Overpasses (SNOs) Predictions

Prediction of SNOs between METOP-A and NOAA-19 Satellite Orbit:

Table of predicted SNOs for the next 14.0 days since TLE Epoch: 10/1/2016
Index Date (METOP-A) Time (METOP-A) Lat,Lon (METOP-A) SZA (METOP-A ) Date (NOAA-19) Time (NOAA-19) Lat,Lon (NOAA-19) SZA (NOAA-19 ) Distance(km) Time Diff (sec)
1 10/05/2016 03:26:32 76.54, 130.25 81.38 10/05/2016 03:25:18 76.56, 129.78 81.39 12.31 74
2 10/05/2016 04:17:15 -76.46, -62.73 98.70 10/05/2016 04:16:17 -76.46, -62.59 98.69 3.59 58
3 10/05/2016 05:07:55 76.48, 104.67 81.34 10/05/2016 05:07:18 76.47, 104.60 81.34 1.78 37
4 10/05/2016 05:58:37 -76.44, -88.13 98.69 10/05/2016 05:58:19 -76.46, -88.11 98.66 2.83 18
5 10/05/2016 06:49:17 76.46, 79.27 81.35 10/05/2016 06:49:19 76.43, 79.26 81.33 2.60 2
6 10/05/2016 07:39:59 -76.42,-113.54 98.68 10/05/2016 07:40:20 -76.43,-113.46 98.67 2.03 21
7 10/05/2016 08:30:39 76.44, 53.86 81.36 10/05/2016 08:31:21 76.44, 53.74 81.36 3.19 42
8 10/05/2016 09:21:21 -76.40,-138.94 98.67 10/05/2016 09:22:22 -76.43,-138.98 98.64 3.05 61
9 10/05/2016 10:12:07 76.15, 27.48 81.08 10/05/2016 10:13:17 76.18, 29.22 81.15 46.54 70




NCC Satellite Simultaneous Nadir Overpasses (SNOs) Prediction Service
